[Date Prev][Date Next][Thread Prev][Thread Next] - [Date Index][Thread Index][Author Index]

2 Line ISS Keps 12-26



ISS
1 25544U 98067A   01360.53147044  .00061658  00000-0  72217-3 0  8894
2 25544  51.6389 200.8543 0002687  70.7963  32.7557 15.60935598177095


----
Via the sarex mailing list at AMSAT.ORG courtesy of AMSAT-NA.
To unsubscribe, send "unsubscribe sarex" to Majordomo@amsat.org



AMSAT Top AMSAT Home